Location: Unspecified
(52.4292°N, 19.3359°E)
Time: 16:13:08
(UTC+01:00)

A-11 Canister half - Pass Details

Date: 13 October 2025
Orbit: 1526 x 1682 km, 47.3° (Epoch: 13 November)

Event Time Altitude Azimuth Distance (km) Brightness Sun altitude
Exits shadow 04:00:50 30° 189° (S) 2,449 9.7 -28.1°
Maximum altitude 04:04:15 40° 148° (SSE) 2,113 9.7 -27.7°
Drops below altitude 10° 04:12:40 10° 83° (E) 3,709 11.9 -26.5°
Sets 04:15:56 0° 77° (ENE) 4,704 12.8 -26.0°
